TimeCET,TemperatureF,Dew PointF,Humidity,Sea Level PressureIn,VisibilityMPH,Wind Direction,Wind SpeedMPH,Gust SpeedMPH,PrecipitationIn,Events,Conditions,WindDirDegrees,DateUTC
12:00 AM,28.4,19.4,69,30.06,6.2,ENE,11.5,-,N/A,,Overcast,60,2013-03-22 23:00:00
12:30 AM,28.4,19.4,69,30.06,6.2,NE,16.1,-,N/A,,Overcast,50,2013-03-22 23:30:00
1:00 AM,28,16,48,30.13,7,NE,15.7,,,,Overcast,40,2013-03-23 00:00:00
1:00 AM,28.4,17.6,64,30.06,6.2,NE,13.8,-,N/A,,Overcast,40,2013-03-23 00:00:00
1:30 AM,26.6,17.6,69,30.06,6.2,NE,15.0,-,N/A,,Overcast,40,2013-03-23 00:30:00
2:00 AM,26.6,17.6,69,30.06,6.2,NNE,15.0,-,N/A,,Overcast,30,2013-03-23 01:00:00
2:30 AM,26.6,15.8,64,30.06,6.2,NNE,11.5,-,N/A,,Overcast,30,2013-03-23 01:30:00
3:00 AM,26.6,17.6,69,30.06,6.2,NE,12.7,-,N/A,,Overcast,50,2013-03-23 02:00:00
3:30 AM,26.6,15.8,64,30.06,6.2,NNE,13.8,-,N/A,,Overcast,30,2013-03-23 02:30:00
4:00 AM,24.8,15.8,69,30.06,6.2,NE,11.5,-,N/A,,Overcast,40,2013-03-23 03:00:00
4:05 AM,24.8,15.8,69,30.06,6.2,NE,15.0,-,N/A,Snow,Light Snow,40,2013-03-23 03:05:00
4:30 AM,24.8,15.8,69,30.06,6.2,NE,13.8,-,N/A,,Overcast,40,2013-03-23 03:30:00
5:00 AM,24.8,15.8,69,30.06,6.2,NNE,13.8,-,N/A,,Overcast,30,2013-03-23 04:00:00
5:30 AM,24.8,14.0,64,30.06,6.2,NE,13.8,-,N/A,,Overcast,40,2013-03-23 04:30:00
6:00 AM,24.8,14.0,64,30.09,6.2,NE,11.5,-,N/A,,Overcast,50,2013-03-23 05:00:00
6:30 AM,24.8,14.0,64,30.09,6.2,NE,13.8,-,N/A,,Mostly Cloudy,40,2013-03-23 05:30:00
7:00 AM,25,11,40,30.17,12,NE,13.4,,,,Partly Cloudy,50,2013-03-23 06:00:00
7:00 AM,24.8,14.0,64,30.09,6.2,NE,12.7,-,N/A,,Partly Cloudy,40,2013-03-23 06:00:00
7:30 AM,24.8,10.4,54,30.09,6.2,NNE,13.8,-,N/A,,Partly Cloudy,30,2013-03-23 06:30:00
8:00 AM,24.8,12.2,59,30.09,6.2,NE,16.1,-,N/A,,Partly Cloudy,40,2013-03-23 07:00:00
8:30 AM,24.8,12.2,59,30.09,6.2,NE,18.4,-,N/A,,Partly Cloudy,50,2013-03-23 07:30:00
9:00 AM,24.8,12.2,59,30.09,6.2,NE,17.3,-,N/A,,Partly Cloudy,50,2013-03-23 08:00:00
9:30 AM,24.8,12.2,59,30.09,6.2,NE,17.3,-,N/A,,Partly Cloudy,50,2013-03-23 08:30:00
10:00 AM,26.6,14.0,59,30.09,6.2,ENE,20.7,-,N/A,,Partly Cloudy,70,2013-03-23 09:00:00
10:30 AM,26.6,14.0,59,30.09,6.2,ENE,20.7,-,N/A,,Partly Cloudy,60,2013-03-23 09:30:00
11:00 AM,28.4,15.8,59,30.09,6.2,ENE,19.6,-,N/A,,Partly Cloudy,60,2013-03-23 10:00:00
11:30 AM,28.4,15.8,59,30.09,6.2,ENE,19.6,-,N/A,,Partly Cloudy,70,2013-03-23 10:30:00
12:00 PM,28.4,15.8,59,30.09,6.2,ENE,21.9,-,N/A,,Partly Cloudy,70,2013-03-23 11:00:00
12:30 PM,30.2,17.6,60,30.09,6.2,ENE,19.6,-,N/A,,Partly Cloudy,60,2013-03-23 11:30:00
1:00 PM,29,12,34,30.15,10,ENE,22.4,,,,Scattered Clouds,60,2013-03-23 12:00:00
1:00 PM,30.2,15.8,55,30.09,-9999.0,ENE,21.9,-,N/A,,Clear,70,2013-03-23 12:00:00
1:30 PM,30.2,15.8,55,30.09,-9999.0,ENE,21.9,-,N/A,,Clear,60,2013-03-23 12:30:00
2:00 PM,30.2,14.0,51,30.06,-9999.0,ENE,19.6,-,N/A,,Clear,60,2013-03-23 13:00:00
2:30 PM,28.4,12.2,51,30.06,-9999.0,ENE,20.7,-,N/A,,Clear,60,2013-03-23 13:30:00
3:00 PM,30.2,14.0,51,30.06,-9999.0,ENE,20.7,-,N/A,,Clear,60,2013-03-23 14:00:00
3:30 PM,30.2,12.2,47,30.06,-9999.0,NE,19.6,-,N/A,,Clear,40,2013-03-23 14:30:00
4:00 PM,30.2,12.2,47,30.06,-9999.0,ENE,20.7,-,N/A,,Clear,60,2013-03-23 15:00:00
4:30 PM,30.2,12.2,47,30.06,-9999.0,NE,19.6,-,N/A,,Clear,50,2013-03-23 15:30:00
5:00 PM,28.4,12.2,51,30.09,-9999.0,NE,21.9,-,N/A,,Clear,50,2013-03-23 16:00:00
5:30 PM,28.4,10.4,47,30.09,-9999.0,ENE,23.0,-,N/A,,Clear,60,2013-03-23 16:30:00
6:00 PM,26.6,8.6,47,30.09,-9999.0,NE,21.9,-,N/A,,Clear,40,2013-03-23 17:00:00
6:30 PM,26.6,8.6,47,30.12,-9999.0,NE,21.9,-,N/A,,Clear,40,2013-03-23 17:30:00
7:00 PM,25,4,26,30.19,19,NE,15.7,,,,Scattered Clouds,40,2013-03-23 18:00:00
7:00 PM,24.8,6.8,46,30.12,-9999.0,NE,19.6,-,N/A,,Clear,40,2013-03-23 18:00:00
7:30 PM,24.8,6.8,46,30.12,-9999.0,NE,18.4,-,N/A,,Clear,40,2013-03-23 18:30:00
8:00 PM,23.0,6.8,50,30.12,-9999.0,NE,18.4,-,N/A,,Clear,40,2013-03-23 19:00:00
8:30 PM,23.0,5.0,46,30.12,-9999.0,NE,20.7,-,N/A,,Clear,40,2013-03-23 19:30:00
9:00 PM,23.0,5.0,46,30.15,-9999.0,NE,23.0,-,N/A,,Clear,50,2013-03-23 20:00:00
9:30 PM,21.2,5.0,50,30.15,-9999.0,NE,21.9,-,N/A,,Clear,50,2013-03-23 20:30:00
10:00 PM,21.2,5.0,50,30.15,-9999.0,NE,21.9,-,N/A,,Clear,40,2013-03-23 21:00:00
10:30 PM,21.2,5.0,50,30.15,-9999.0,NE,20.7,-,N/A,,Clear,40,2013-03-23 21:30:00
10:38 PM,21.2,6.8,54,30.15,-9999.0,NE,19.6,31.1,N/A,,Clear,40,2013-03-23 21:38:00
11:00 PM,19.4,5.0,54,30.15,-9999.0,NE,20.7,-,N/A,,Clear,40,2013-03-23 22:00:00
11:30 PM,19.4,5.0,54,30.15,-9999.0,NE,19.6,-,N/A,,Clear,50,2013-03-23 22:30:00